Location: Nag� el Ma?a??a
(24.0667°N, 32.8833°E)
Time: 21:04:53
(UTC+00:00)

SJ 16-02 - Visible Passes

Search period start: 24 January 2022 00:00
Search period end: 03 February 2022 00:00
Orbit: 605 x 616 km, 75.0° (Epoch: 24 January)

Date Brightness Start Highest point End Pass type
(mag) Time Alt. Az. Time Alt. Az. Time Alt. Az.
25 Jan 2.8 16:57:08 10° SSE 16:59:02 22° SE 16:59:02 22° SE visible
26 Jan 1.5 17:11:16 10° S 17:14:52 58° SSE 17:14:52 58° SSE visible
27 Jan 4.0 03:28:21 10° NNE 03:31:37 20° ENE 03:34:52 10° ESE visible
27 Jan 2.1 17:26:03 10° SSW 17:30:16 49° WNW 17:30:46 46° NW visible
28 Jan 2.7 03:42:12 10° N 03:46:23 42° ENE 03:50:33 10° SE visible
28 Jan 2.8 16:03:47 10° SE 16:06:43 18° E 16:09:38 10° NE visible
28 Jan 3.5 17:41:33 10° SW 17:45:01 23° WNW 17:46:42 19° NW visible
29 Jan 1.3 03:56:39 10° NNW 04:01:05 87° WSW 04:05:28 10° SSE visible
29 Jan 1.8 16:17:12 10° SSE 16:21:15 38° E 16:25:19 10° NNE visible
29 Jan 4.4 17:58:38 10° W 17:59:53 11° WNW 18:01:07 10° NW visible
30 Jan 4.4 02:35:43 10° NE 02:37:03 11° ENE 02:38:23 10° E visible
30 Jan 1.2 16:31:29 10° SSW 16:35:51 87° ESE 16:40:15 10° NNE visible
31 Jan 3.6 02:48:21 10° NNE 02:51:54 23° ENE 02:55:25 10° SE visible
31 Jan 2.6 16:46:24 10° SW 16:50:32 41° WNW 16:54:42 10° N visible
01 Feb 2.2 03:02:21 10° N 03:06:39 49° ENE 03:10:55 10° SSE visible
01 Feb 3.9 17:02:05 10° WSW 17:05:18 20° WNW 17:08:32 10° NNW visible
02 Feb 1.2 03:16:54 10° NNW 03:21:19 73° WSW 03:25:41 10° S visible
